Weather History for Ravenna, OH

Change the Weather History Date:

Tuesday, May 14, 2013

  Actual Average (KCAK) Record (KCAK)
Temperature  
Mean Temperature 48 °F 58 °F  
Max Temperature 64 °F 69 °F 90 °F (1962)
Min Temperature 31 °F 48 °F 31 °F (1996)
Degree Days  
Heating Degree Days 18 8  
Month to date heating degree days 129  
Since 1 July heating degree days 6005  
Cooling Degree Days 0 1  
Month to date cooling degree days 8  
Year to date cooling degree days 14  
Moisture  
Dew Point 32 °F    
Average Humidity 57    
Maximum Humidity 98    
Minimum Humidity 33    
Precipitation  
Precipitation 0.00 in 0.14 in 1.16 in (2005)
Month to date precipitation 1.85  
Year to date precipitation 13.30  
Snow  
Snow 0.00 in 0.00 in - ()
Month to date snowfall 0.1  
Since 1 July snowfall 47.5  
Snow Depth -    
Sea Level Pressure  
Sea Level Pressure 30.03 in    
Wind  
Wind Speed 3 mph (SE)    
Max Wind Speed 13 mph    
Max Gust Speed 18 mph    
Visibility 10 miles    
Events Rain    
T = Trace of Precipitation, MM = Missing Value Source: NWS Daily Summary

Daily Weather History Graph

Daily Weather History Graph

Search for Another Location

Airport:

Trip Planner

Search our weather history database for the weather conditions in past years. The results will help you decide how hot, cold, wet, or windy it might be!

Date:

Astronomy

May. 14, 2013 Rise Set
Actual Time 6:07 AM EDT 8:35 PM EDT
Civil Twilight 5:36 AM EDT 9:07 PM EDT
Nautical Twilight 4:57 AM EDT 9:46 PM EDT
Astronomical Twilight 4:13 AM EDT 10:30 PM EDT
Moon 9:45 AM EDT (5/14) No Moon Set
Length of Visible Light 15h 31m
Length of Day
14h 28m
Waxing Crescent, 19% of the Moon is Illuminated
May 14
Waxing Crescent
May 18
First Quarter
May 25
Full
May 31
Last Quarter
Jun 8
New

Hourly Weather History & Observations

Time (EDT) Temp. Windchill Dew Point Humidity Pressure Visibility Wind Dir Wind Speed Gust Speed Precip Events Conditions
12:17 AM 33.1 °F - 29.7 °F 87% 30.15 in 10.0 mi Calm Calm - N/A   Clear
12:37 AM 32.0 °F - 29.1 °F 89% 30.16 in 10.0 mi Calm Calm - N/A   Clear
12:57 AM 32.0 °F - 29.3 °F 90% 30.16 in 10.0 mi Calm Calm - N/A   Clear
1:17 AM 31.6 °F - 29.8 °F 93% 30.15 in 10.0 mi Calm Calm - N/A   Clear
1:37 AM 32.5 °F - 29.7 °F 89% 30.15 in 10.0 mi Calm Calm - N/A   Clear
1:57 AM 32.9 °F - 32.4 °F 98% 30.15 in 10.0 mi Calm Calm - N/A   Clear
2:17 AM 34.9 °F - 28.2 °F 77% 30.14 in 10.0 mi Calm Calm - N/A   Clear
2:37 AM 34.0 °F - 28.4 °F 80% 30.14 in 10.0 mi Calm Calm - N/A   Clear
2:56 AM 34.3 °F 31.4 °F 27.5 °F 76% 30.14 in 10.0 mi SE 3.5 mph - N/A   Clear
3:17 AM 34.0 °F - 27.3 °F 77% 30.13 in 10.0 mi Calm Calm - N/A   Clear
3:37 AM 32.9 °F - 27.9 °F 82% 30.13 in 10.0 mi Calm Calm - N/A   Clear
3:57 AM 32.4 °F - 27.1 °F 81% 30.13 in 10.0 mi Calm Calm - N/A   Clear
4:17 AM 33.1 °F 30.0 °F 27.3 °F 79% 30.13 in 10.0 mi SE 3.5 mph - N/A   Clear
4:37 AM 34.0 °F - 26.6 °F 74% 30.12 in 10.0 mi Calm Calm - N/A   Clear
4:57 AM 34.2 °F - 26.4 °F 73% 30.13 in 10.0 mi Calm Calm - N/A   Clear
5:17 AM 33.3 °F - 26.6 °F 77% 30.13 in 10.0 mi Calm Calm - N/A   Clear
5:37 AM 34.2 °F - 25.9 °F 72% 30.13 in 10.0 mi Calm Calm - N/A   Clear
5:57 AM 34.0 °F 31.0 °F 25.7 °F 72% 30.13 in 10.0 mi ESE 3.5 mph - N/A   Clear
6:17 AM 32.5 °F - 26.6 °F 79% 30.14 in 10.0 mi Calm Calm - N/A   Clear
6:37 AM 35.2 °F - 25.5 °F 68% 30.14 in 10.0 mi Calm Calm - N/A   Clear
6:56 AM 35.8 °F 33.0 °F 26.4 °F 69% 30.13 in 10.0 mi ESE 3.5 mph - N/A   Mostly Cloudy
7:17 AM 37.6 °F 35.1 °F 27.3 °F 66% 30.14 in 10.0 mi SE 3.5 mph - N/A   Scattered Clouds
7:37 AM 38.5 °F - 26.8 °F 63% 30.14 in 10.0 mi Calm Calm - N/A   Mostly Cloudy
7:57 AM 39.7 °F - 26.8 °F 60% 30.14 in 10.0 mi Calm Calm - N/A   Mostly Cloudy
8:17 AM 42.1 °F 40.2 °F 27.0 °F 55% 30.14 in 10.0 mi SSE 3.5 mph - N/A   Scattered Clouds
8:37 AM 43.9 °F 42.3 °F 27.5 °F 53% 30.14 in 10.0 mi SSE 3.5 mph - N/A   Scattered Clouds
8:57 AM 44.6 °F 43.1 °F 28.2 °F 53% 30.13 in 10.0 mi SSW 3.5 mph - N/A   Mostly Cloudy
9:17 AM 45.1 °F - 29.1 °F 54% 30.13 in 10.0 mi Calm Calm - N/A   Overcast
9:37 AM 45.5 °F 44.2 °F 30.0 °F 55% 30.12 in 10.0 mi SSE 3.5 mph - N/A   Overcast
9:57 AM 45.7 °F 44.4 °F 30.4 °F 55% 30.10 in 10.0 mi South 3.5 mph - N/A   Overcast
10:17 AM 47.1 °F - 31.1 °F 54% 30.09 in 10.0 mi SSE 5.8 mph - N/A   Overcast
10:37 AM 48.4 °F - 31.6 °F 52% 30.08 in 10.0 mi South 4.6 mph - N/A   Overcast
10:56 AM 48.6 °F - 31.6 °F 52% 30.08 in 10.0 mi SSE 4.6 mph - N/A   Overcast
11:17 AM 50.2 °F - 32.0 °F 50% 30.07 in 10.0 mi SSE 8.1 mph - N/A   Overcast
11:37 AM 53.6 °F - 32.7 °F 45% 30.06 in 10.0 mi SSE 5.8 mph - N/A   Mostly Cloudy
11:57 AM 53.6 °F - 32.7 °F 45% 30.07 in 10.0 mi SE 5.8 mph - N/A   Overcast
12:17 PM 55.0 °F - 33.4 °F 44% 30.06 in 10.0 mi SSE 5.8 mph - N/A   Mostly Cloudy
12:37 PM 56.3 °F - 34.0 °F 43% 30.04 in 10.0 mi SSE 6.9 mph - N/A   Mostly Cloudy
12:57 PM 57.0 °F - 35.1 °F 44% 30.03 in 10.0 mi SE 6.9 mph - N/A   Overcast
1:17 PM 58.8 °F - 36.0 °F 42% 30.01 in 10.0 mi SSE 8.1 mph - N/A   Unknown
1:37 PM 58.5 °F - 32.5 °F 38% 30.02 in 10.0 mi SSE 6.9 mph - N/A   Unknown
1:57 PM 59.7 °F - 34.5 °F 39% 30.01 in 10.0 mi SSE 6.9 mph - N/A   Overcast
2:17 PM 60.4 °F - 34.0 °F 37% 30.00 in 10.0 mi SSE 6.9 mph 16.1 mph N/A   Mostly Cloudy
2:37 PM 62.1 °F - 34.0 °F 35% 29.99 in 10.0 mi SSE 10.4 mph - N/A   Mostly Cloudy
2:57 PM 61.7 °F - 32.5 °F 33% 29.98 in 10.0 mi South 6.9 mph - N/A   Mostly Cloudy
3:17 PM 60.4 °F - 34.0 °F 37% 29.97 in 10.0 mi SE 9.2 mph - N/A Rain Light Rain
3:37 PM 62.8 °F - 34.9 °F 35% 29.95 in 10.0 mi South 8.1 mph - N/A   Overcast
3:57 PM 62.6 °F - 34.2 °F 35% 29.94 in 10.0 mi SSE 9.2 mph 16.1 mph N/A   Mostly Cloudy
4:17 PM 62.8 °F - 34.9 °F 35% 29.93 in 10.0 mi SE 12.7 mph 17.3 mph N/A   Mostly Cloudy
4:37 PM 63.9 °F - 34.7 °F 34% 29.92 in 10.0 mi SSE 6.9 mph 18.4 mph N/A   Mostly Cloudy
4:56 PM 64.4 °F - 35.1 °F 34% 29.92 in 10.0 mi South 9.2 mph 17.3 mph N/A   Scattered Clouds
5:17 PM 63.0 °F - 34.5 °F 35% 29.90 in 10.0 mi SSE 10.4 mph 17.3 mph N/A   Scattered Clouds
5:37 PM 62.2 °F - 34.7 °F 36% 29.90 in 10.0 mi SSE 10.4 mph - N/A   Scattered Clouds
5:56 PM 62.1 °F - 34.9 °F 36% 29.92 in 10.0 mi SSE 8.1 mph - N/A   Mostly Cloudy
6:17 PM 62.1 °F - 35.2 °F 37% 29.91 in 10.0 mi SSE 8.1 mph - N/A   Overcast
6:37 PM 62.1 °F - 35.8 °F 38% 29.91 in 10.0 mi South 5.8 mph - N/A   Overcast
6:56 PM 61.9 °F - 36.5 °F 39% 29.91 in 10.0 mi SSE 6.9 mph - N/A   Overcast
7:17 PM 61.3 °F - 36.0 °F 39% 29.90 in 10.0 mi SSE 4.6 mph - N/A   Mostly Cloudy
7:37 PM 61.0 °F - 36.1 °F 40% 29.90 in 10.0 mi ESE 5.8 mph - N/A   Scattered Clouds
7:57 PM 60.3 °F - 36.9 °F 42% 29.89 in 10.0 mi ESE 4.6 mph - N/A   Clear
8:17 PM 59.2 °F - 38.5 °F 46% 29.89 in 10.0 mi ESE 6.9 mph - N/A   Clear
8:37 PM 58.6 °F - 38.5 °F 47% 29.90 in 10.0 mi ESE 6.9 mph - N/A   Clear
8:57 PM 57.6 °F - 38.3 °F 49% 29.89 in 10.0 mi ESE 8.1 mph - N/A   Clear
9:17 PM 56.8 °F - 38.3 °F 50% 29.88 in 10.0 mi ESE 8.1 mph - N/A   Clear
9:37 PM 56.3 °F - 37.9 °F 50% 29.89 in 10.0 mi ESE 6.9 mph - N/A   Clear
9:56 PM 55.9 °F - 38.3 °F 52% 29.89 in 10.0 mi ESE 6.9 mph - N/A   Clear
10:17 PM 53.8 °F - 39.2 °F 58% 29.89 in 10.0 mi East 6.9 mph - N/A   Clear
10:37 PM 52.7 °F - 39.6 °F 61% 29.88 in 10.0 mi East 8.1 mph - N/A   Clear
10:57 PM 51.6 °F - 39.6 °F 63% 29.88 in 10.0 mi East 6.9 mph - N/A   Clear
11:17 PM 51.4 °F - 39.4 °F 63% 29.87 in 10.0 mi ESE 8.1 mph - N/A   Clear
11:37 PM 50.9 °F - 39.4 °F 65% 29.85 in 10.0 mi ESE 8.1 mph - N/A   Clear
11:57 PM 50.4 °F - 39.4 °F 66% 29.85 in 10.0 mi East 6.9 mph - N/A   Clear